Weather History for HEGN - August, 2014

Change the Weather History Date:

Wednesday, August 13, 2014

  Actual Average Record
Temperature  
Mean Temperature 93 °F -  
Max Temperature 104 °F 93 °F 104 °F (2014)
Min Temperature 82 °F 79 °F 80 °F (2005)
Cooling Degree Days 28    
Growing Degree Days 43 (Base 50)    
Moisture  
Dew Point 63 °F    
Average Humidity 34    
Maximum Humidity 51    
Minimum Humidity 19    
Precipitation  
Precipitation 0.00 in - - ()
Sea Level Pressure  
Sea Level Pressure 29.68 in    
Wind  
Wind Speed 11 mph ()    
Max Wind Speed 16 mph    
Max Gust Speed -    
Visibility 6.0 miles    
Events      
Averages and records for this station are not official NWS values.
T = Trace of Precipitation, MM = Missing Value Source: Averaged Metar Reports

Daily Weather History Graph

Daily Weather History Graph

Search for Another Location

Airport or City:

Trip Planner

Search our weather history database for the weather conditions in past years. The results will help you decide how hot, cold, wet, or windy it might be!

Date:

Astronomy

Aug. 13, 2014 Rise Set
Actual Time 6:14 AM EEST 7:24 PM EEST
Civil Twilight 5:50 AM EEST 7:48 PM EEST
Nautical Twilight 5:21 AM EEST 8:17 PM EEST
Astronomical Twilight 4:51 AM EEST 8:47 PM EEST
Moon 9:20 PM EEST (8/13) 8:58 AM EEST (8/13)
Length of Visible Light 13h 58m
Length of Day
13h 09m
Waning Gibbous, 90% of the Moon is Illuminated
Aug 13
Waning Gibbous
Aug 17
Last Quarter
Aug 25
New
Sep 2
First Quarter
Sep 9
Full

Hourly Weather History & Observations

Time (EEST) Temp. Heat Index Dew Point Humidity Pressure Visibility Wind Dir Wind Speed Gust Speed Precip Events Conditions
12:00 AM 92 °F - 55 °F 19% 29.70 in 6 mi WNW 15.0 mph - -  
12:00 AM 93.2 °F 91.3 °F 55.4 °F 28% 29.68 in - WNW 15.0 mph - N/A   Clear
1:00 AM 89.6 °F 88.1 °F 57.2 °F 33% 29.68 in - WNW 11.5 mph - N/A   Clear
2:00 AM 89.6 °F 88.9 °F 59.0 °F 36% 29.68 in - WNW 12.7 mph - N/A   Clear
3:00 AM 88 °F - 60 °F 28% 29.69 in 6 mi NNW 13.8 mph - -  
3:00 AM 87.8 °F 87.1 °F 59.0 °F 38% 29.68 in - NNW 13.8 mph - N/A   Clear
4:00 AM 87.8 °F 88.5 °F 62.6 °F 43% 29.68 in - North 15.0 mph - N/A   Clear
5:00 AM 84.2 °F 83.5 °F 57.2 °F 40% 29.68 in - WNW 4.6 mph - N/A   Clear
6:00 AM 84 °F - 63 °F 38% 29.71 in 6 mi NW 6.9 mph - -  
6:00 AM 84.2 °F 85.0 °F 62.6 °F 48% 29.71 in - NW 6.9 mph - N/A   Clear
7:00 AM 84.2 °F 85.6 °F 64.4 °F 51% 29.71 in - NW 9.2 mph - N/A   Clear
8:00 AM 87.8 °F 89.4 °F 64.4 °F 46% 29.71 in - NW 13.8 mph - N/A   Clear
9:00 AM 92 °F - 64 °F 30% 29.73 in 6 mi NNW 9.2 mph - -  
9:00 AM 91.4 °F 93.2 °F 64.4 °F 41% 29.71 in - NNW 9.2 mph - N/A   Clear
10:00 AM 93.2 °F 96.2 °F 66.2 °F 41% 29.71 in - North 15.0 mph - N/A   Clear
11:00 AM 95.0 °F 99.5 °F 68.0 °F 41% 29.71 in - North 16.1 mph - N/A   Clear
12:00 PM 98 °F - 66 °F 26% 29.70 in 6 mi NNE 12.7 mph - -  
12:00 PM 98.6 °F 102.8 °F 66.2 °F 35% 29.68 in - NNE 12.7 mph - N/A   Clear
1:00 PM 98.6 °F 102.8 °F 66.2 °F 35% 29.68 in - NNE 12.7 mph - N/A   Clear
2:00 PM 102.2 °F 108.4 °F 68.0 °F 33% 29.65 in - NNE 10.4 mph - N/A   Clear
3:00 PM 103 °F - 67 °F 22% 29.67 in 6 mi NE 15.0 mph - -  
3:00 PM 102.2 °F 108.4 °F 68.0 °F 33% 29.65 in - NE 15.0 mph - N/A   Clear
4:00 PM 100.4 °F 106.3 °F 68.0 °F 35% 29.65 in - NE 12.7 mph - N/A   Clear
5:00 PM 104.0 °F 108.9 °F 66.2 °F 29% 29.65 in - NNE 6.9 mph - N/A   Clear
6:00 PM 100 °F - 66 °F 23% 29.65 in 6 mi North 8.1 mph - -  
6:00 PM 100.4 °F 104.9 °F 66.2 °F 33% 29.62 in - North 8.1 mph - N/A   Clear
7:00 PM 96.8 °F 99.0 °F 64.4 °F 34% 29.62 in - North 9.2 mph - N/A   Clear
8:00 PM 95.0 °F 97.0 °F 64.4 °F 36% 29.65 in - NW 9.2 mph - N/A   Clear
9:00 PM 94 °F - 63 °F 26% 29.68 in 6 mi WNW 8.1 mph - -  
9:00 PM 93.2 °F 94.1 °F 62.6 °F 36% 29.65 in - WNW 8.1 mph - N/A   Clear
10:00 PM 93.2 °F 93.3 °F 60.8 °F 34% 29.68 in - NW 3.5 mph - N/A   Clear
11:00 PM 93.2 °F 91.9 °F 57.2 °F 30% 29.68 in - NW 11.5 mph - N/A   Clear